CZ-6 R/B, 44784

Orbit data source: Space-Track

CZ-6 R/B, 44784 is space debris in LEO originally from a launch on Wed, 13 Nov 2019 UTC launched from the Taiyaun Space Center, China (TSC). Debris objects in space refer to the collection of defunct objects orbiting the Earth. Examples of debris include non-operational satellites, rocket bodies, and fragments generated from explosions, collisions, or faulty payload assembly.

Loading next visibility...
Identifier
44784, 2019-076F
Orbit
LEO
Last TLE update
12 hours ago
Origin
Manufacturer
SAST
Mission
Spacecraft
Bus & Motor
CZ-6 STAGE 3, YF-85 X 4
Mass
~1,000 kg wet, ~1,000 kg dry
Launch date (UTC)
2019-11-13 (5 years ago)
Launch vehicle
Unknown
Launch site
Taiyaun Space Center, China (TSC)
Object type
Payload
Rocket body
Debris
Shape & HBR
Cyl, 4 m
Radar Cross Section
9.057 m², Large (>1 m²)

Expand to show TLE details & history

TLE from 12 hours ago
0 CZ-6 R/B
1 44784U 19076F   25128.87854682  .00000115  00000-0  11737-3 0  9995
2 44784  45.0069 307.0131 0087686  10.6819 349.5860 14.17962900284309
Epoch: 2025-05-08T21:05Z
Definitive object data (Epoch: 2025-05-08T21:05:06.445Z)
Latitude
0.00002°
Longitude
123.79354°
Altitude
770.091 km
Speed
7.503 km/s
True Right ascension
20h 28m 03s
True Declination
0° 00' 00"
Sunlit
Object was in daylight at TLE epoch
Visualization TLE readout
Latitude
42.38857°
Longitude
-123.75822°
Altitude
840.373 km
Speed
7.436 km/s
Apparent Right ascension
04h 44m 10s
Apparent Declination
4° 25' 03"
Sunlit
Object is in daylight
Visualization observer readout
Local Sidereal Time
17:34:44
Azimuth
17.707° NNE
Elevation
-44.167°
Doppler factor
1
Orbital elements
Apogee altitude
897.02 km
Perigee altitude
770.543 km
Semi-major axis
7,211.918 km
Eccentricity
0.0087686
Inclination
45.0069°
RAAN
307.0131°
Arg. of periapsis
10.6819°
True anomaly
349.40239°
Mean anomaly
349.586°
Eccentric anomaly
349.4944°
Mean motion
3.54378 °/min
BSTAR
0.00011737
Orbital period
101.59 mins
Loading maneuver chart data...
Loading SW <> Apogee altitude chart data...
Loading historical data...
Loading historical data...
Loading historical data...
Loading historical data...
Loading historical data...
Loading historical data...
Loading historical data...
Other satellites on launch #76 in the year 2019 (2019-11-13 UTC)

CZ-6 R/B Visibility forecast

Observer location: undefined°, undefined°

Span
Click to sort rows by Start time (UTC) header in descending order
Start Az.
Max El. time (UTC)
Max El. Az.
Max El.
End time (UTC)
End Az.
8 mins2025-05-09 14:09:24.694Z195.482° SSW2025-05-09 14:13:24.694Z138.106° SSE26.594°2025-05-09 14:17:24.694Z84.266° E
9 mins2025-05-09 15:55:24.694Z249.71° W2025-05-09 15:59:24.694Z287.77° WNW44.535°2025-05-09 16:04:24.694Z65.8° ENE
8 mins2025-05-09 17:43:24.694Z290.164° WNW2025-05-09 17:46:24.694Z342.144° N37.346°2025-05-09 17:51:24.694Z70.311° E
9 mins2025-05-09 19:30:24.694Z298.129° NW2025-05-09 19:34:24.694Z39.129° NE42.686°2025-05-09 19:39:24.694Z100.343° ESE
10 mins2025-05-09 21:16:24.694Z282.172° WNW2025-05-09 21:20:24.694Z227.116° WSW35.306°2025-05-09 21:26:24.694Z143.657° SSE
|